Regional Weather Roundup
Issued by NWS

Home | Current Version | Previous Version | Graphics & Text | Print | Product List | Glossary On
Versions: 1 2 3 4 5 6 7 8 9 10 11 12 13 14 15 16 17 18 19 20 21 22 23 24 25 26 27 28 29 30 31 32 33 34 35 36 37 38 39 40 41 42 43 44 45 46 47 48 49 50
000
ASUS43 KBIS 260810
RWRND

NORTH DAKOTA REGIONAL WEATHER ROUNDUP
NATIONAL WEATHER SERVICE BISMARCK ND
300 AM CDT TUE SEP 26 2017

NOTE: "FAIR" INDICATES FEW OR NO CLOUDS BELOW 12,000 FEET WITH NO
SIGNIFICANT WEATHER AND/OR OBSTRUCTIONS TO VISIBILITY.


NDZ001>003-009>011-017-260900-
NORTHWEST NORTH DAKOTA

CITY           SKY/WX    TMP DP  RH WIND       PRES   REMARKS
WILLISTON      CLOUDY    47  46  97 CALM      30.10F
MINOT          CLOUDY    49  45  86 SE5       30.11S
MINOT AFB      CLOUDY    47  44  90 CALM      30.10S
$$

NDZ018>021-031>035-040>046-260900-
SOUTHWEST NORTH DAKOTA

CITY           SKY/WX    TMP DP  RH WIND       PRES   REMARKS
BISMARCK       CLOUDY    47  45  93 NE3       30.12F
DICKINSON      LGT RAIN  45  44  97 SE7       30.09R
GARRISON         N/A     46  44  93 E3        30.11S
HETTINGER ARPT CLOUDY    44  42  93 SE5       30.12S
$$

NDZ004>008-012>016-024-026-027-054-260900-
NORTHEAST NORTH DAKOTA

CITY           SKY/WX    TMP DP  RH WIND       PRES   REMARKS
GRAND FORKS    LGT RAIN  50  50 100 NW7       30.08F
GRND FRKS AFB  CLOUDY    49  48  96 N6        30.09S
DEVILS LAKE    CLOUDY    45  43  93 NW5       30.12S
$$

NDZ022-023-025-028>030-036>039-047>053-260900-
SOUTHEAST NORTH DAKOTA

CITY           SKY/WX    TMP DP  RH WIND       PRES   REMARKS
FARGO          LGT RAIN  50  50 100 N10       30.05F
JAMESTOWN      LGT RAIN  47  46  97 NW6       30.07F
$$




USA.gov is the U.S. government's official web portal to all federal, state and local government web resources and services.